{"data":{"norad_id":50204,"epoch":"2026-05-25T00:56:03.189120Z","epoch_age_seconds":65696,"freshness":"FRESH","line1":"1 50204U 21125BA  26145.03892580 -.00000111  00000+0  11134-4 0  9992","line2":"2 50204  53.2156 256.3841 0001024  84.3429 275.7680 15.08839381248310","mean_motion":15.08839381,"eccentricity":0.0001024,"inclination_deg":53.2156,"raan_deg":256.3841,"arg_perigee_deg":84.3429,"mean_anomaly_deg":275.768,"bstar":1.1134e-5,"rev_number":24831,"period_min":95.437593830937,"perigee_km":539.03688985454,"apogee_km":540.45367214569,"semimajor_km":6917.8822810001,"source":"CELESTRAK","updated_at":"2026-05-25T13:38:16.873677Z"}}